Date String (YYYY-MM-DD hh:mm:ss) UTC,Instrument flags,Ambient pressure (hPa),Sample flow (lpm),Bypass flow (lpm),Sample temperature (°C),Ambient temperature (°C),ASC tube jacket temperature (°C),LED temperature (°C),Box temperature (°C),Sample RH (%),Span deviation,Mass concentration (μg/m³),Mass concentration (μg/m³),Mass concentration (μg/m³)
DateTimeUTC,F1_M11,P_M11,Q1_M11,Q2_M11,T1_M11,T2_M11,T3_M11,T4_M11,T5_M11,U1_M11,ZSPAN_M11,X0_M11,X2_M11,X1_M11
2022-06-12 02:00:00,,0820.8,5.00,0.00,28.9,28.1,00.0,37.6,31.0,16.5,0000.0,0011.19,0004.52,0003.16
2022-06-12 02:01:00,,0820.8,5.01,0.00,28.9,27.6,00.0,37.6,30.9,16.5,0000.0,0011.31,0004.56,0003.15
2022-06-12 02:02:00,,0820.8,5.00,0.00,28.9,26.9,00.0,37.6,30.6,16.1,0000.0,0011.59,0004.58,0003.16
2022-06-12 02:03:00,,0820.8,4.99,0.00,28.8,26.7,00.0,37.5,30.6,16.1,0000.0,0011.97,0004.53,0003.17
2022-06-12 02:04:00,,0820.9,4.99,0.00,28.8,26.8,00.0,37.5,30.5,16.1,0000.0,0012.23,0004.55,0003.17
2022-06-12 02:05:00,,0820.8,5.01,0.00,28.7,26.9,00.0,37.6,30.5,16.0,0000.0,0013.27,0004.55,0003.18
2022-06-12 02:06:00,,0820.9,5.00,0.00,28.7,27.1,00.0,37.6,30.6,15.8,0000.0,0013.22,0004.55,0003.17
2022-06-12 02:07:00,,0820.9,5.00,0.00,28.7,27.3,00.0,37.6,30.7,15.9,0000.0,0012.93,0004.57,0003.18
2022-06-12 02:08:00,,0820.9,5.00,0.00,28.8,27.5,00.0,37.6,30.8,16.1,0000.0,0013.23,0004.56,0003.19
2022-06-12 02:09:00,,0820.9,5.01,0.00,28.8,27.7,00.0,37.6,30.8,16.2,0000.0,0013.43,0004.61,0003.20
2022-06-12 02:10:00,,0820.9,5.00,0.00,28.9,27.9,00.0,37.6,30.9,16.1,0000.0,0013.34,0004.56,0003.18
2022-06-12 02:11:00,,0820.9,4.99,0.00,28.9,28.0,00.0,37.6,31.0,16.0,0000.0,0013.28,0004.54,0003.18
2022-06-12 02:12:00,,0820.9,4.99,0.00,28.9,27.3,00.0,37.6,30.8,15.9,0000.0,0012.79,0004.51,0003.19
2022-06-12 02:13:00,,0820.9,5.01,0.00,28.8,26.7,00.0,37.5,30.6,15.9,0000.0,0012.56,0004.53,0003.19
2022-06-12 02:14:00,,0820.9,4.99,0.00,28.8,26.6,00.0,37.5,30.5,16.0,0000.0,0012.08,0004.56,0003.19
2022-06-12 02:15:00,,0820.9,5.00,0.00,28.7,26.7,00.0,37.5,30.5,16.0,0000.0,0012.18,0004.54,0003.18
2022-06-12 02:16:00,,0820.9,5.01,0.00,28.7,26.9,00.0,37.5,30.5,16.0,0000.0,0012.04,0004.50,0003.18
2022-06-12 02:17:00,,0820.9,5.01,0.00,28.7,27.1,00.0,37.5,30.6,15.9,0000.0,0011.21,0004.50,0003.19
2022-06-12 02:18:00,,0820.9,4.98,0.00,28.7,27.3,00.0,37.5,30.6,15.8,0000.0,0011.34,0004.56,0003.19
2022-06-12 02:19:00,,0820.9,5.00,0.00,28.7,27.5,00.0,37.6,30.7,15.8,0000.0,0011.29,0004.61,0003.19
2022-06-12 02:20:00,,0820.9,5.00,0.00,28.8,27.7,00.0,37.6,30.8,15.7,0000.0,0010.88,0004.59,0003.19
2022-06-12 02:21:00,,0820.9,4.99,0.00,28.9,27.9,00.0,37.6,30.9,15.6,0000.0,0010.83,0004.58,0003.20
2022-06-12 02:22:00,,0820.9,5.01,0.00,28.9,28.0,00.0,37.6,30.9,15.6,0000.0,0011.16,0004.58,0003.21
2022-06-12 02:23:00,,0820.9,5.00,0.00,28.9,27.4,00.0,37.6,30.8,15.6,0000.0,0011.58,0004.62,0003.21
2022-06-12 02:24:00,,0820.9,5.00,0.00,28.8,26.8,00.0,37.5,30.6,15.6,0000.0,0012.33,0004.66,0003.22
2022-06-12 02:25:00,,0820.9,4.99,0.00,28.8,26.7,00.0,37.5,30.6,15.6,0000.0,0012.50,0004.64,0003.22
2022-06-12 02:26:00,,0820.9,5.01,0.00,28.7,26.7,00.0,37.5,30.5,15.7,0000.0,0011.72,0004.59,0003.22
2022-06-12 02:27:00,,0820.9,4.99,0.00,28.7,26.9,00.0,37.5,30.5,15.9,0000.0,0011.90,0004.63,0003.23
2022-06-12 02:28:00,,0820.9,5.00,0.00,28.7,27.0,00.0,37.5,30.5,15.9,0000.0,0011.86,0004.61,0003.22
2022-06-12 02:29:00,,0820.9,5.00,0.00,28.7,27.2,00.0,37.5,30.6,15.7,0000.0,0011.85,0004.55,0003.23
2022-06-12 02:30:00,,0820.9,5.00,0.00,28.7,27.5,00.0,37.5,30.7,15.6,0000.0,0011.87,0004.52,0003.24
2022-06-12 02:31:00,,0820.9,5.00,0.00,28.8,27.6,00.0,37.5,30.8,15.8,0000.0,0011.68,0004.48,0003.24
2022-06-12 02:32:00,,0821.0,5.01,0.00,28.8,27.8,00.0,37.6,30.8,15.8,0000.0,0011.96,0004.47,0003.25
2022-06-12 02:33:00,,0821.0,5.00,0.00,28.9,28.0,00.0,37.6,30.9,15.9,0000.0,0011.94,0004.46,0003.25
2022-06-12 02:34:00,,0821.0,4.99,0.00,28.9,28.0,00.0,37.6,30.9,15.7,0000.0,0011.50,0004.38,0003.24
2022-06-12 02:35:00,,0821.0,4.99,0.00,28.9,27.2,00.0,37.6,30.7,15.8,0000.0,0011.62,0004.34,0003.24
2022-06-12 02:36:00,,0821.0,5.01,0.00,28.8,26.6,00.0,37.5,30.5,16.0,0000.0,0011.67,0004.33,0003.24
2022-06-12 02:37:00,,0821.0,4.99,0.00,28.7,26.5,00.0,37.5,30.5,16.1,0000.0,0012.19,0004.37,0003.24
2022-06-12 02:38:00,,0821.0,5.00,0.00,28.7,26.6,00.0,37.5,30.4,16.2,0000.0,0011.99,0004.42,0003.24
2022-06-12 02:39:00,,0821.0,5.00,0.00,28.6,26.8,00.0,37.5,30.4,16.3,0000.0,0012.05,0004.45,0003.24
2022-06-12 02:40:00,,0821.0,5.00,0.00,28.6,27.0,00.0,37.5,30.5,16.3,0000.0,0012.19,0004.47,0003.24
2022-06-12 02:41:00,,0821.0,5.00,0.00,28.7,27.2,00.0,37.5,30.6,16.2,0000.0,0012.54,0004.48,0003.24
2022-06-12 02:42:00,,0821.0,4.99,0.00,28.7,27.4,00.0,37.5,30.7,16.2,0000.0,0013.55,0004.49,0003.22
2022-06-12 02:43:00,,0821.1,4.99,0.00,28.7,27.6,00.0,37.5,30.7,16.1,0000.0,0014.04,0004.47,0003.22
2022-06-12 02:44:00,,0821.1,5.00,0.00,28.8,27.8,00.0,37.6,30.8,16.2,0000.0,0014.05,0004.48,0003.23
2022-06-12 02:45:00,,0821.1,5.00,0.00,28.8,27.9,00.0,37.6,30.9,16.2,0000.0,0014.39,0004.55,0003.24
2022-06-12 02:46:00,,0821.1,5.00,0.00,28.9,28.0,00.0,37.6,30.9,16.8,0000.0,0013.70,0004.54,0003.24
2022-06-12 02:47:00,,0821.1,5.01,0.00,28.9,27.4,00.0,37.6,30.8,17.6,0000.0,0013.20,0004.54,0003.25
2022-06-12 02:48:00,,0821.1,5.00,0.00,28.8,26.7,00.0,37.5,30.5,17.1,0000.0,0013.48,0004.56,0003.25
2022-06-12 02:49:00,,0821.1,4.99,0.00,28.7,26.5,00.0,37.5,30.5,16.8,0000.0,0013.69,0004.52,0003.25
2022-06-12 02:50:00,,0821.1,5.00,0.00,28.7,26.6,00.0,37.5,30.4,16.7,0000.0,0013.77,0004.47,0003.24
2022-06-12 02:51:00,,0821.1,5.00,0.00,28.6,26.7,00.0,37.5,30.4,16.5,0000.0,0013.55,0004.49,0003.23
2022-06-12 02:52:00,,0821.1,4.99,0.00,28.6,26.9,00.0,37.5,30.5,16.4,0000.0,0012.87,0004.46,0003.23
2022-06-12 02:53:00,,0821.1,5.00,0.00,28.6,27.1,00.0,37.5,30.5,16.4,0000.0,0011.95,0004.45,0003.24
2022-06-12 02:54:00,,0821.2,5.01,0.00,28.7,27.3,00.0,37.5,30.6,16.5,0000.0,0011.79,0004.40,0003.23
2022-06-12 02:55:00,,0821.1,5.00,0.00,28.7,27.5,00.0,37.5,30.7,16.3,0000.0,0011.28,0004.37,0003.22
2022-06-12 02:56:00,,0821.1,5.00,0.00,28.7,27.7,00.0,37.5,30.8,16.3,0000.0,0011.05,0004.32,0003.21
2022-06-12 02:57:00,,0821.2,4.99,0.00,28.8,27.8,00.0,37.6,30.8,16.3,0000.0,0011.45,0004.33,0003.21
2022-06-12 02:58:00,,0821.2,4.99,0.00,28.8,28.0,00.0,37.6,30.9,16.1,0000.0,0011.56,0004.32,0003.21
2022-06-12 02:59:00,,0821.2,5.01,0.00,28.9,28.1,00.0,37.6,30.9,16.2,0000.0,0010.78,0004.30,0003.22
